Flag for Bahrain Weather past 2 weeks in Riffa, Bahrain

Now
66 °F

Passing clouds.


Feels Like: 66 °F
Forecast: 66 / 71 °F
Wind: 5 mph from South

Location: Bahrain International Airport

Current Time: Dec 21, 2014 at 7:34:12 AM

Latest Report: Dec 21, 2014 at 7:00 AM


Visibility: N/A

Pressure: 30.01 "Hg

Humidity: 64%

Dew point: 54 °F

Location of RiffaLocation

Historic Weather in Riffa — Graph

°F

Riffa temperature yesterday

Maximum temperature yesterday: 72 °F (at 12:00 PM)
Minimum temperature yesterday: 59 °F (at 6:00 AM)
Average temperature yesterday: 67 °F

Past Weeks' High & Low Weather Summary

 TemperatureHumidityPressure
High79 °F (Dec 15, 1:00 PM)88% (Dec 10, 5:00 AM)30.24 "Hg (Dec 10, 5:00 AM)
Low59 °F (Dec 20, 6:00 AM)28% (Dec 15, 1:30 PM)29.98 "Hg (Dec 21, 5:00 AM)
Average70 °F67%30.11 "Hg
* Reported Dec 6 6:00 AM — Dec 21 6:00 AM, Riffa, Weather by CustomWeather, © 2014

Note: Actual official high and low records may vary slightly from our data, if they occured in-between our weather recording intervals... More about our weather records

Advertising

Riffa weather history for previous 24 hours

 ConditionsComfort  
Time TempWeatherWind HumidityBarometerVisibility
6:00 AM
Dec 21
66 °FPassing clouds.5 mph73%30.01 "HgN/A
5:00 AM68 °FPassing clouds.7 mph56%29.98 "HgN/A
4:00 AM66 °FPassing clouds.3 mph64%30.01 "HgN/A
3:00 AM66 °FPassing clouds.6 mph60%30.01 "HgN/A
2:00 AM66 °FClear.6 mph64%30.01 "Hg5 mi
1:00 AM66 °FClear.7 mph68%30.04 "Hg10 mi
12:00 AM66 °FClear.8 mph68%30.04 "Hg10 mi
11:00 PM
Dec 20
68 °FClear.7 mph49%30.04 "Hg10 mi
10:00 PM68 °FClear.9 mph56%30.07 "Hg10 mi
9:00 PM68 °FClear.8 mph49%30.07 "Hg10 mi
8:00 PM68 °FClear.7 mph43%30.07 "Hg10 mi
7:00 PM68 °FClear.5 mph56%30.07 "Hg10 mi
6:00 PM68 °FClear.6 mph53%30.07 "Hg10 mi
5:00 PM68 °FClear.7 mph56%30.07 "Hg10 mi
4:00 PM70 °FSunny.9 mph57%30.07 "Hg10 mi
3:00 PM72 °FPassing clouds.6 mph53%30.07 "HgN/A
2:00 PM72 °FPassing clouds.7 mph53%30.07 "HgN/A
1:00 PM72 °FPassing clouds.6 mph53%30.09 "HgN/A
12:00 PM72 °FPassing clouds.7 mph44%30.12 "HgN/A
11:00 AM70 °FPassing clouds.7 mph50%30.15 "HgN/A
10:00 AM70 °FPassing clouds.7 mph50%30.18 "HgN/A
9:00 AM68 °FPassing clouds.5 mph53%30.21 "HgN/A
8:00 AM66 °FSunny.2 mph56%30.18 "Hg10 mi
7:00 AM63 °FClear.1 mph64%30.18 "Hg4 mi
Weather by CustomWeather, © 2014

See weather overviewHow to use our weather pages